Regional Weather Roundup
Issued by NWS

Home | Current Version | Previous Version | Graphics & Text | Print | Product List | Glossary On
Versions: 1 2 3 4 5 6 7 8 9 10 11 12 13 14 15 16 17 18 19 20 21 22 23 24 25 26 27 28 29 30 31 32 33 34 35 36 37 38 39 40 41 42 43 44 45 46 47 48 49 50
000
ASUS45 KBOU 011507
RWRCO

WEATHER ROUNDUP FOR COLORADO
NATIONAL WEATHER SERVICE DENVER/BOULDER CO
900 AM MDT TUE SEP 01 2015

NOTE: "FAIR" INDICATES FEW OR NO CLOUDS BELOW 12000 FEET WITH NO
SIGNIFICANT WEATHER AND/OR OBSTRUCTIONS TO VISIBILITY.

COZ001>005-013-030-031-011600-
...NORTHWEST COLORADO...

CITY           SKY/WX    TMP DP  RH WIND       PRES   REMARKS
CRAIG          SUNNY     63  47  55 VRB7      30.22F
HAYDEN         NOT AVBL
MEEKER         SUNNY     59  48  67 CALM      30.24S
MOUNT WERNER   NOT AVBL
STEAMBOAT SPGS SUNNY     52  46  80 CALM      30.27F
WALDEN         SUNNY     50  43  76 CALM      30.34S
$$

COZ006>008-011-011600-
...WEST CENTRAL VALLEYS...

CITY           SKY/WX    TMP DP  RH WIND       PRES   REMARKS
GRAND JUNCTION MOSUNNY   66  52  60 SE7       30.15R
MONTROSE       SUNNY     66  48  52 SE3       30.24S
EAGLE          NOT AVBL
RIFLE          MOSUNNY   59  51  75 CALM      30.22S
DELTA          SUNNY     67  50  54 CALM      30.21R
NUCLA          SUNNY     68  45  42 E6        30.27S
$$

COZ017>023-064>068-011600-
...SOUTHWEST COLORADO...

CITY           SKY/WX    TMP DP  RH WIND       PRES   REMARKS
DURANGO        MOSUNNY   59  45  59 N3        30.29R
CORTEZ         SUNNY     66  49  54 CALM      30.24S
PAGOSA SPRINGS MOSUNNY   57  43  59 CALM      30.36R
TELLURIDE      SUNNY     55  45  67 CALM      30.46S
WOLF CREEK PAS PTSUNNY   46  36  66 E3        30.64S
$$

COZ009-010-012-014-032>034-037-058>063-011600-
...CENTRAL COLORADO...

CITY           SKY/WX    TMP DP  RH WIND       PRES   REMARKS
ASPEN          SUNNY     57  42  57 CALM      30.34S
BUENA VISTA    SUNNY     57  41  55 NW5       30.36S
COPPER MTN     MOSUNNY   52  39  62 W14       30.60R
BERTHOUD PASS  FAIR      41  30  65 NW25G36   30.62S
COTTONWOOD PAS SUNNY     59  39  47 W3        30.47S
GUNNISON       SUNNY     52  39  62 CALM      30.41S
KREMMLING      PTSUNNY   46  43  87 CALM      30.36F
LEADVILLE      SUNNY     55  39  54 VRB3      30.46R
MONARCH PASS   MOSUNNY   45  37  76 W18       30.71R
SALIDA         SUNNY     58  43  57 N6        30.41S
SUNLIGHT       SUNNY     52  45  76 CALM      30.55S
WILKERSON PASS SUNNY     50  34  53 NW7       30.58R
$$

COZ069>075-011600-
...SAN LUIS VALLEY/SANGRE DE CRISTO MOUNTAINS...

CITY           SKY/WX    TMP DP  RH WIND       PRES   REMARKS
ALAMOSA        PTSUNNY   52  47  83 CALM      30.35R
LA VETA PASS   PTSUNNY   52  41  66 MISG      30.47S
SAGUACHE       CLOUDY    55  45  67 NW9       30.37R
$$

COZ035-036-038>040-011600-
...NORTHERN COLORADO FRONT RANGE...

CITY           SKY/WX    TMP DP  RH WIND       PRES   REMARKS
DENVER INTL AP MOSUNNY   72  50  45 SW10      30.12S
DMNS CITY PARK   N/A     70  50  47 SW7       30.12F
AURORA         MOSUNNY   71  49  46 SW8       30.15R
FRONT RANGE AP MOSUNNY   73  46  38 SW13      30.14
ERIE MUNI ARPT SUNNY     67  53  61 CALM      30.11S
BOULDER MUN AP SUNNY     70  46  43 CALM      30.11S
CENTENNIAL     MOSUNNY   72  46  39 W7        30.16S
BROOMFIELD     MOSUNNY   68  50  52 CALM      30.14S
FORT COLLINS   SUNNY     66  48  52 CALM      30.11S
LONGMONT       SUNNY     68  52  56 CALM      30.12R
$$

COZ041-046-047-076>085-087-088-011600-
...PIKES PEAK/PALMER DIVIDE AND SOUTHERN FOOTHILLS...

CITY           SKY/WX    TMP DP  RH WIND       PRES   REMARKS
COLO. SPRINGS  MOSUNNY   67  52  58 S5        30.20R
A. F. ACADEMY  SUNNY     73  44  36 NW8       30.20S
ELLICOTT       SUNNY    N/A N/A N/A W9        30.18S
FALCON         SUNNY     68  51  54 MISG      30.25R
FORT CARSON    SUNNY     67  54  63 N5        30.17R
LIMON          SUNNY     66  56  70 W3        30.13S
MONUMENT HILL  SUNNY     68  46  45 W7        30.24S
TRINIDAD       MOSUNNY   72  49  44 W10       30.18S
$$

COZ042>045-048>051-090-091-011600-
...NORTHEAST COLORADO...

CITY           SKY/WX    TMP DP  RH WIND       PRES   REMARKS
GREELEY ARPT   SUNNY     64  54  68 CALM      30.10S
AKRON          SUNNY     69  57  65 W10       30.07S
BURLINGTON     SUNNY     72  59  63 CALM      30.06R
WRAY           CLOUDY    71  60  69 W6        30.02R
STERLING       SUNNY     66  59  77 SW7       30.03S
HOLYOKE        NOT AVBL
FORT MORGAN    SUNNY     66  55  68 W10       30.08S
$$

COZ086-089-092>099-011600-
...SOUTHEAST COLORADO...

CITY           SKY/WX    TMP DP  RH WIND       PRES   REMARKS
PUEBLO         MOSUNNY   72  54  53 W5        30.10F
LA JUNTA       SUNNY     72  56  57 W3        30.08S
LAMAR          SUNNY     72  59  63 N3        30.04S
SPRINGFIELD      N/A     76  56  49 E3        30.08S
$$




USA.gov is the U.S. government's official web portal to all federal, state and local government web resources and services.